Location: Austin
(30.3000°N, 97.7500°W)
Time: 03:18:02
(UTC-05:00)

Tiangong - Pass Details

Date: 01 October 2024
Orbit: 374 x 378 km, 41.5° (Epoch: 06 October)

Event Time Altitude Azimuth Distance (km) Brightness Sun altitude
Rises 20:53:46 0° 289° (WNW) 2,220 3.2 -22.0°
Reaches altitude 10° 20:56:01 10° 276° (W) 1,369 1.8 -22.5°
Enters shadow 20:58:21 25° 228° (SW) 805 -0.2 -23.0°
